Regional Weather Roundup
Issued by NWS

Home | Current Version | Previous Version | Text Only | Print | Product List | Glossary On
Versions: 1 2 3 4 5 6 7 8 9 10 11 12 13 14 15 16 17 18 19 20 21 22 23 24 25 26 27 28 29 30 31 32 33 34 35 36 37 38 39 40 41 42 43 44 45 46 47 48 49 50
000
ASUS42 KFFC 250410
RWRGA
WEATHER ROUNDUP FOR GEORGIA
NATIONAL WEATHER SERVICE PEACHTREE CITY GA
1200 AM EDT SUN JUN 25 2017

NOTE: "FAIR" INDICATES FEW OR NO CLOUDS BELOW 12,000 FEET WITH NO
SIGNIFICANT WEATHER AND/OR OBSTRUCTIONS TO VISIBILITY.

* = USE WITH CAUTION. THE STATIONS MARKED WITH AN ASTERISK MAY NOT
REPORT WEATHER SUCH AS PRECIPITATION, FOG, OR THUNDER AND ARE NOT
QUALITY CONTROLLED BY NWS.

THE REMARK "TC" DENOTES TEMPERATURE READING IN DEGREES CELSIUS.

GAZ001>058-250500-
NORTH GEORGIA

CITY           SKY/WX    TMP DP  RH WIND       PRES   REMARKS
ATLANTA        CLOUDY    74  72  93 CALM      30.09F
ATHENS         PTCLDY    71  71 100 CALM      30.08R
CHAMBLEE       PTCLDY    72  70  93 W3        30.09R
PEACHTREE CITY LGT RAIN  73  72  96 N3        30.10S FOG
ROME           CLEAR     75  67  76 N3        30.09R
WEST ATLANTA   PTCLDY    73  72  96 CALM      30.09S
GAINESVILLE    CLOUDY    70  70 100 SW3       30.11R
CARTERSVILLE   CLOUDY    72  72 100 CALM      30.10R


CITY           SKY/WX    TMP DP  RH WIND       PRES   REMARKS
DALTON*        CLEAR     68  66  94 CALM      30.11R
MARIETTA       CLOUDY    71  70  94 W6        30.10R
CANTON*        CLOUDY    70  70 100 CALM      30.12R
$$

GAZ059>098-102>109-250500-
CENTRAL GEORGIA

CITY           SKY/WX    TMP DP  RH WIND       PRES   REMARKS
AUGUSTA-BUSH   CLOUDY    78  73  84 NW3       30.04S
AUGUSTA-DANIEL CLOUDY    76  67  73 VRB5      30.06S
COLUMBUS       MOCLDY    76  74  93 CALM      30.07S
MACON          CLOUDY    78  76  93 NE5       30.06S
ROBINS AFB     CLOUDY    77  77 100 CALM      30.06R


CITY           SKY/WX    TMP DP  RH WIND       PRES   REMARKS
LAGRANGE*      CLOUDY    77  76  98 W3        30.09R
SYLVANIA*      CLOUDY    76  76  98 CALM      30.08S
MILLEDGEVILLE* CLOUDY    73  72  94 E5        30.08F
$$

GAZ099>101-110>166-250500-
SOUTH GEORGIA

CITY           SKY/WX    TMP DP  RH WIND       PRES   REMARKS
SAVANNAH       PTCLDY    82  74  76 S6        30.06R
VALDOSTA       CLEAR     78  74  87 SW3       30.08R
ALMA           CLEAR     81  72  74 SW5       30.06R
ST SIMONS      CLEAR     83  77  82 S9        30.06R HX  92
FT STEWART     MOCLDY    79  74  84 CALM      30.05R
ALBANY         PTCLDY    77  76  96 CALM      30.10R
HUNTER AFB     PTCLDY    82  77  85 CALM      30.04R
MOODY AFB      CLEAR     80  73  80 SW7       30.07R
BRUNSWICK      CLEAR     82  77  83 S5        30.07R HX  91


CITY           SKY/WX    TMP DP  RH WIND       PRES   REMARKS
BAINBRIDGE*    CLEAR     82  77  83 W7        30.08R HX  91
MOULTRIE*      PTCLDY    79  73  83 SW3       30.09R
VIDALIA*       CLOUDY    79  77  94 CALM      30.07R
WAYCROSS*      CLEAR     82  78  86 SW7       30.07R HX  92
DOUGLAS*       CLEAR     81  72  74 SW8       30.09R
$$




USA.gov is the U.S. government's official web portal to all federal, state and local government web resources and services.